This is the latest recevied weather packets stored in our database for station/object VK3MAK-1. If no packets are shown the sender has not sent any weather packets the latest 1 day(s).
| Time | Temp. | Humidity | Pressure | Rain* | Wind** | Luminosity | Snow |
|---|---|---|---|---|---|---|---|
| 1778052003 | 10.56° C | 10% | - | 0 mm | 8.49 m/s, 225° | - | - |
| 1778051403 | 10.56° C | 10% | - | 0 mm | 8.49 m/s, 225° | - | - |
| 1778050803 | 11.67° C | 10% | - | 0 mm | 6.26 m/s, 225° | - | - |
| 1778050203 | 11.67° C | 10% | - | 0.51 mm | 6.26 m/s, 225° | - | - |
| 1778049603 | 11.67° C | 10% | - | 0.51 mm | 6.26 m/s, 225° | - | - |
| 1778049004 | 12.22° C | 10% | - | 0 mm | 7.6 m/s, 225° | - | - |
| 1778048403 | 12.22° C | 10% | - | 0 mm | 7.6 m/s, 225° | - | - |
| 1778047804 | 12.22° C | 10% | - | 0 mm | 7.6 m/s, 225° | - | - |
| 1778047203 | 16.67° C | 67% | 1015.3 hPa | 0 mm | 7.6 m/s, 270° | - | - |
| 1778046603 | 16.67° C | 67% | 1015.3 hPa | 0 mm | 7.6 m/s, 270° | - | - |
| 1778046003 | 16.67° C | 67% | 1015.3 hPa | 0 mm | 7.6 m/s, 270° | - | - |
| 1778045403 | 17.22° C | 67% | 1015.4 hPa | 0 mm | 6.71 m/s, 270° | - | - |
| 1778044804 | 17.22° C | 75% | 1015.2 hPa | 0 mm | 6.71 m/s, 293° | - | - |
| 1778044204 | 17.22° C | 75% | 1015.2 hPa | 0 mm | 6.71 m/s, 293° | - | - |
| 1778043602 | 16.11° C | 91% | 1015.5 hPa | 0 mm | 6.26 m/s, 293° | - | - |
| 1778043004 | 16.11° C | 91% | 1015.5 hPa | 0 mm | 6.26 m/s, 293° | - | - |
| 1778042404 | 16.11° C | 91% | 1015.5 hPa | 0 mm | 6.26 m/s, 293° | - | - |
| 1778041804 | 15.56° C | 10% | - | 0 mm | 5.81 m/s, 293° | - | - |
| 1778041203 | 15.56° C | 10% | - | 0 mm | 5.81 m/s, 293° | - | - |
| 1778040604 | 15.56° C | 10% | - | 0 mm | 5.81 m/s, 293° | - | - |
| 1778040003 | 13.89° C | 10% | - | 0 mm | 7.15 m/s, 293° | - | - |
| 1778039403 | 13.89° C | 10% | - | 0.51 mm | 7.15 m/s, 293° | - | - |
| 1778038803 | 13.89° C | 10% | - | 0.51 mm | 7.15 m/s, 293° | - | - |
| 1778038203 | 14.44° C | 10% | - | 0 mm | 6.71 m/s, 293° | - | - |
| 1778037603 | 14.44° C | 10% | - | 0 mm | 6.71 m/s, 293° | - | - |
* Rain latest hour (hover to see other rain measurements)
** Current wind speed in m/s (hover to see current wind gust speed)